Visit our webpage : www.zegrzepomorskie.pl

NOTAM's

Aerodrome closed!
More info: http://lotnisko.koszalin.pl

Lotnisko zlikwidowane


Z przykroscia informujemy, ze miasto Koszalin, Starosta Koszalinski oraz Gmina Swieszyno bedace w posiadaniu lotniska Zegrze Pomorskie doprowadzily do zamkniecia tego obiektu i zlikwidowania lotniczego okna na swiat zarzadzanego przez Aeroklub Koszalinski.
Jesli szukaja Panstwo mozliwosci dostania sie do Koszalina szybka i bezpieczna droga lotnicza, to nie bedziecie juz takie mozliwosci.

Zrobilismy krok w tyl w rozwoju Koszalina i regionu.

Airport closed

We sadly inform that the city of Koszalin, Starostwo Powiatowe and the Swieszyno Commune, which was in the possession of the Zegrze Pomorskie airport, led to the closure of this facility and the liquidation of this "window to the world" managed by the Koszalin Aero Club.
If you are looking for an opportunity to get to Koszalin quickly and safely by air, then you will not have such an opportunity anymore in our region.

We have taken a step back in the development of Koszalin and the region.
General Information Charts AIP

Airport Name: Koszalin - Zegrze Pomorskie
ICAO Code: EPKZ (old code EPKO)
City: Koszalin PL
Elevation: 240 ft (73m);

ARP: (240ft)
N 54.042778 E 16.263611 (dd.dddddd) WGS84
N 54 02'34" E 16 15'49" (dd mm ss)
N 54 02.567 E 16 15.817 (dd mm.mmm)

25 THR (233ft)
N 54.046083 E 16.28185 (dd.dddddd) WGS84
N 54 02'45" E 16 16'54" (dd mm ss)
N 54 02.765 E 16 16.911 (dd mm.mmm)

Runway: 07/25; 2500x60m; Asphalt

Radio:
Koszalin Radio: 122.305MHz

WARNING - SINCE 20.03.2019 OLD FREQUENCY 122.300MHz is not in used anymore
FIS: Gdansk Information: 127.150MHz

E-mail: przemek@tu.org.pl
Phone (PL): +48503770933
Phone (PL/ENG): +4915730043864

Web: www.ZegrzePomorskie.pl

There is no AVGAS. You can refuel in EPSC or EPBY.

Minimal atmospheric conditions
(cloud base / visibility)
day - aeroplanes 200 m / 2000 m
day - gliders 300 m / 2000 m
day - helicopters 200 m / 2000 m
day - baloons 300 m / 2000 m
day - powered hang-gliders 200 m / 2000 m
night - aeroplanes 500 m / 5000 m
night - gliders 500 m / 5000 m
night - helicopters 300 m / 5000 m
night - baloons 500 m / 5000 m
night - powered hang-gliders 500m / 5000m

Wind indicator - 300 m south from 25 THR.

Czapla Gora mountain and observation tower 156 m AMSL within 2800 m from ARP, 1 km south from rwy axis on 07 THR side.

VRP Navigation points:

  • Kilo - 54* 5' 25.40"N 16* 22'6.10"E Kliszno - petrol station (lighted mast by night)
  • Delta - 54* 2'2.74"N 16* 24'13.32"E Military radar station Darzewo.
  • November - 54* 3'59.78"N 16* 9'52.79"E - Niedalino village.
  • Bravo - 53* 58'57.83"N 16* 11'45.12"E Bukowko village.

    VRP points in GPX format

    Warnings:
    Aviation Ambulance on site from MAY to SEP.
    Damaged surface (20m) before 07 treshold signs only.

  • Plan zagospodarowania przestrzeni lotniska (PL)
  • Airspace map
  • Current/Next AUP/UUP charts live



     
  • VFR AD 4 EPKZ
  • VFR AD 4 EPKZ 3-0 Aerodrome Chart
  • VFR AD 4 EPKZ 4-0 Visual Operation Chart
  • VFR AD 4 EPKZ 5-0 Visual Operation Chart
  • VFR AD 4 EPKZ 6-0 Extract from Aeronautical Chart of Poland - ICAO 1: 500 000

  • Weather
    Metar z pełnej godziny Komunikat METAR ze strony awiacja.imgw.pl Metar G00 EPSC METAR EPSC 262300Z 19002KT 0100 R31/0400N FG SCT000 BKN003 04/04 Q1019 =
    Metar z połowy godziny Komunikat METAR ze strony awiacja.imgw.pl Metar G30 EPSN METAR EPSN 262330Z 28011KT 4000 BR BKN006 06/06 Q1018 RMK 058 100 7/7=
    Metar z połowy godziny Komunikat METAR ze strony awiacja.imgw.pl Metar G30 EPNA METAR EPNA 262330Z NIL=
    Metar z połowy godziny Komunikat METAR ze strony awiacja.imgw.pl Metar G30 EPDA METAR EPDA 262330Z 30012KT 260V330 9999 SCT022 09/05 Q1017 RMK 085 078 3/3=
    Metar z pełnej godziny Komunikat METAR ze strony awiacja.imgw.pl Metar G00 EPGD METAR EPGD 262300Z 26011KT 9999 BKN038 06/03 Q1014 =
    Metar z pełnej godziny Komunikat METAR ze strony awiacja.imgw.pl Metar G00 EPBY METAR EPBY 262300Z 27012KT 5000 BR OVC003 05/04 Q1018 =

    Orbifly METMAP - Map of metars
    METAR message map of Poland (ibcool)
    METAR message map of Europe (ibcool)
    SYNOP observations general cloud cover for Europe

    IMGW - TAF's, METAR's, thunderstorms/icing/wind map's

    IMGW Radar
    http://radareu.cz
    http://www.blitzortung.org/

    TAF from EPDA RAW(about 27nm NE from Zegrze Pomorskie)

    TAF from EPDA Translated


    Significant

    Satelite:

    Camera view from Chelmska Mountain (Koszalin)

    Camera provided by koszalin.pl
    Hotels:
    We look forward to proposals of cooperation...


    Photo gallery



    statystyka


    przemek@tu.org.pl

    Facebook
    Kopiowanie calosci jak i poszczegolnych czesci tej strony jest lamaniem praw autorskich. Autor nie wyraza zgody na kopiowanie elementow strony i wykorzystywanie ich w celach komercyjnych jak i prywatnych bez uzgodnienia.
    Aeroklub Ziemi Koszalinskiej